Погода в Лавасе

Малайзия     4°51′25″N   115°23′59″E
темп.,
°C
ветер,
м/с
пор.,
м/с
влажн.,
%
обл.,
%
осадки,
мм/ч
давл.,
гПа
погр.,
м
13 апреля, вт
вт1323:00+21юв1189100 0.0 101515
02:00+20юв119299 0.1 101316
05:00+19юв119551 0.3 101320
08:00+23юз117953 0.3 1015280
11:00+27зсз226615 0.6 10141111
14:00+25зсз127998 3.0 1012887
17:00+23сз1191100 2.4 1011259
20:00+20юв119797 4.1 101414
14 апреля, ср
ср1423:00+19юв1197100 0.8 101524
02:00+19юв1196100 1.4 101219
05:00+19юв1196100 0.0 101220
08:00+22юв1191100 0.0 101462
11:00+27зсз2163100 0.0 10131001
14:00+26зсз2269100 0.6 10111014
17:00+24зсз227663 0.4 1010581
20:00+20юв119870 0.8 101315
15 апреля, чт
чт1523:00+20юв119529 0.1 101423
02:00+19юв2193100 0.1 101226
05:00+19юв2191100 0.0 101230
08:00+23ю0178100 0.0 1013163
11:00+27зсз2259100 0.0 10131106
14:00+27зсз236361 0.5 10101297
17:00+23сз128893 1.3 1011430
20:00+20ююв1198100 2.5 101320
16 апреля, пт
пт1623:00+20юв1197100 0.3 101427
02:00+19юв1196100 0.3 101224
05:00+19юв119698 0.0 101223
08:00+22ююз018797 0.0 1014116
11:00+28зсз225937 0.0 10131255
14:00+29зсз335483 0.1 10101774
17:00+24сз1282100 0.6 1010507
20:00+21юв1197100 0.7 101313
17 апреля, сб
сб1723:00+20ююв119698 0.0 101430
02:00+20юв1195100 0.0 101221
05:00+19юв1195100 0.0 101319
08:00+22юз0186100 0.0 1015227
11:00+27зсз226534 0.4 10141149
14:00+28зсз2358100 0.9 10111651
17:00+23сз1294100 1.5 1012201
20:00+20юв119861 1.9 101419